Preview of NWS' New Version of Forecast
This preview is not operational and should not be used for support decisions.
Latest weather observations around

Hartford, Hartford-Brainard Airport (KHFD)

Using International System of Units (Switch to English Units)
Date/ Time (EDT) Wind (kph) Vis. (km) Weather Sky Cond. Temp (°C) Rel. Humidity Wind Chill (°C) Heat Index (°C) Pressure Precip. (cm)
Air Dwpt 6 hour Altimeter (hPa) Sea level (hPa) 1 hr 3 hr 6 hr
Max Min
Notice The following observation data may not be complete
Jun 19 05:01   14.48 Cloudy BKN009 OVC014          %              
Jun 19 04:53 Calm 16.09 Cloudy OVC010 19 18     93%     1011.5 1011.4      
Jun 19 03:53 Calm 16.09 Cloudy BKN010 OVC028 19 18     93%     1011.5 1011.4      
Jun 19 03:28 Calm 16.09 Cloudy SCT010 OVC028 18 18     97%     1011.2        
Jun 19 02:53 Calm 16.09 Cloudy OVC010 19 18     93%     1011.5 1011.4      
Jun 19 02:48 Calm 16.09 Cloudy OVC009 19 17     88%     1011.5        
Jun 19 02:03 Calm 12.87 Cloudy OVC014 19 17     90%     1011.9        
Jun 19 01:53 Calm 16.09 Cloudy OVC015 19 17     90%     1011.9 1011.6     0
Jun 19 01:14 Calm 16.09 Cloudy SCT009 OVC018 19 17     90%     1011.9        
Jun 19 00:53 NNW 5 16.09 Cloudy OVC018 19 17     90%     1011.9 1011.7      
Jun 19 00:27 N 5 16.09 Cloudy FEW008 OVC021 19 17     90%     1011.9        
Jun 19 00:10 Calm 14.48 Cloudy SCT012 OVC023 19 17     90%     1011.9        
Jun 19 00:03 Calm 16.09 Cloudy SCT009 BKN014 OVC024 18 17     93%     1011.9        
Jun 18 23:53 Calm 16.09 Cloudy OVC011 18 17     93%     1012.2 1012 0    
Jun 18 23:36 Calm 16.09 Cloudy OVC011 19 17     90%     1012.2   0    
Jun 18 22:53 Calm 16.09 Light Rain OVC007 19 17     90%     1012.2 1012.1 0 0  
Jun 18 21:53 N 5 16.09 Light Rain OVC007 19 17     90%     1012.2 1012.2 0    
Jun 18 20:53 N 5 9.66 Light Rain and Fog/Mist OVC005 18 18     97%     1011.9 1011.8 0    
Jun 18 20:39 N 8 4.83 Light Rain and Fog/Mist OVC005 19 18     93%     1011.9   0    
Jun 18 20:25 NNW 9 3.22 Light Rain and Fog/Mist OVC004 18 17     93%     1012.2   0    
Jun 18 20:15 N 8 2.82 Light Rain and Fog/Mist OVC003 19 18     93%     1011.9   0    
Jun 18 19:53 NE 8 2.41 Light Rain and Fog/Mist BKN005 BKN014 OVC043 19 18     93%     1011.9 1011.9 0   1
Jun 18 19:48 NE 5 2.41 Light Rain and Fog/Mist SCT006 BKN014 OVC045 19 18     94%     1011.9   0    
Jun 18 19:40 Calm 2.01 Light Rain and Fog/Mist BKN014 BKN043 OVC070 20 19     93%     1011.9   0    
Jun 18 19:32 S 5 4.02 Light Rain and Fog/Mist BKN014 BKN048 OVC060 20 19     93%     1011.9   0    
Jun 18 19:28 Calm 6.44 Light Rain and Fog/Mist SCT012 BKN026 OVC065 20 19     93%     1012.2   0    
Jun 18 19:17 Calm 8.05 Light Rain and Fog/Mist FEW006 BKN014 OVC060 20 19     93%     1012.2   0    
Jun 18 19:01 Calm 4.83 Light Rain and Fog/Mist SCT006 BKN017 OVC070 20 19     93%     1011.9   0    
Jun 18 18:53 Calm 3.22 Light Rain and Fog/Mist FEW008 BKN060 OVC070 20 19     93%     1011.9 1011.9 0    
Jun 18 18:44 Calm 2.82 Light Rain and Fog/Mist FEW010 OVC065 20 19     93%     1011.9   0    
Jun 18 18:19 Calm 11.27 Light Rain FEW010 SCT020 OVC065 21 19     90%     1011.9   0    
Jun 18 18:00 Calm 16.09 Light Rain SCT010 BKN017 OVC060 21 19     90%     1011.9   0    
Jun 18 17:53 Calm 3.22 Light Rain and Fog/Mist BKN017 BKN070 OVC085 20 19     93%     1011.9 1011.9 0    
Jun 18 17:00 Calm 3.22 Light Rain and Fog/Mist BKN017 BKN070 OVC085 21 19     90%     1012.5   0    
Jun 18 16:53 Calm 2.82 Fog/Mist BKN007 BKN017 OVC085 20 19     93%     1012.2 1012.2 0 0  
Jun 18 16:11 Calm 2.82 Light Rain and Fog/Mist BKN007 BKN017 OVC085 20 19     93%     1012.2   0    
Jun 18 16:04 Calm 3.22 Light Rain and Fog/Mist SCT007 BKN017 OVC085 20 19     93%     1012.5   0    
Jun 18 15:53 Calm 2.82 Rain and Fog/Mist BKN007 BKN017 OVC085 20 19     93%     1012.5 1012.6 0    
Jun 18 15:47 Calm 2.82 Rain and Fog/Mist BKN007 BKN017 OVC070 20 18     88%     1012.5   0    
Jun 18 15:10 Calm 8.05 Light Rain and Fog/Mist SCT005 BKN009 OVC023 19 18     93%     1012.5   0    
Jun 18 14:53 Calm 8.05 Light Rain and Fog/Mist BKN014 BKN023 OVC065 20 18     90%     1012.9 1012.7 0    
Jun 18 14:32 NNE 8 6.44 Light Rain and Fog/Mist FEW011 OVC019 19 18     90%     1012.9   0    
Jun 18 14:25 N 8 8.05 Light Rain and Fog/Mist BKN011 BKN017 OVC023 19 17     87%     1013.2   0    
Jun 18 14:16 N 8 9.66 Light Rain and Fog/Mist SCT011 OVC018 19 18     90%     1013.6   0    
Jun 18 13:53 NNE 11 4.02 Rain and Fog/Mist FEW005 BKN011 OVC024 19 18     93%     1013.6 1013.5 0   0
Jun 18 13:36 N 8 9.66 Light Rain and Fog/Mist SCT007 BKN012 OVC017 20 18     90%     1013.6   0    
Jun 18 13:03 N 5 4.83 Light Rain and Fog/Mist OVC008 20 18     90%     1013.9   0    
Jun 18 12:53 N 5 4.02 Rain and Fog/Mist OVC010 20 18     90%     1014.2 1014.1 0    
Jun 18 11:53 NNE 5 9.66 Light Rain and Fog/Mist OVC012 21 18     87%     1014.2 1014.2 0    
Jun 18 11:43 NNW 9 11.27 Cloudy OVC011 21 18     87%     1014.2   0    
Jun 18 11:33 N 8 9.66 Light Rain and Fog/Mist BKN009 OVC015 21 18     87%     1014.2   0    
Jun 18 11:13 N 9 14.48 Cloudy FEW007 BKN015 OVC030 21 18     87%     1014.2        
Jun 18 10:53 N 8 12.87 Cloudy SCT007 OVC031 21 19     87%     1014.2 1014.2 0 0  
Jun 18 10:49 N 9 12.87 Cloudy FEW007 OVC030 21 19     88%     1014.2   0    
Jun 18 09:53 S 5 9.66 Light Rain and Fog/Mist BKN007 BKN017 OVC038 20 19     93%     1014.6 1014.4 0    
Jun 18 08:53 SE 5 11.27 Light Rain BKN007 BKN017 OVC038 20 19     93%     1014.9 1014.9 0    
Jun 18 07:53 SSE 5 11.27 Light Rain SCT006 BKN020 OVC045 20 18     90%     1014.6 1014.6 0   0
Jun 18 06:53 S 8 14.48 Cloudy BKN010 OVC049 19 18     93%     1014.6 1014.4 0    
Jun 18 05:53 Calm 8.05 Fog/Mist BKN009 OVC055 19 18     93%     1014.6 1014.4 0    
Jun 18 05:37 Calm 9.66 Fog/Mist BKN006 OVC060 19 18     93%     1014.6   0    
Jun 18 05:29 S 5 9.66 Fog/Mist SCT006 BKN041 OVC070 19 18     93%     1014.6   0    
Jun 18 04:53 Calm 9.66 Light Rain and Fog/Mist SCT050 OVC060 19 18     93%     1014.6 1014.6 0 0  
Jun 18 03:53 Calm 16.09 Cloudy OVC065 19 18     93%     1014.2 1014.3      
Jun 18 02:53 SSE 5 16.09 Cloudy OVC065 19 18     93%     1014.6 1014.5 0    
Jun 18 01:53 SSE 8 16.09 Cloudy OVC095 21 18     84%     1014.9 1014.8      
Jun 18 00:53 SSE 5 16.09 Clear CLR 21 17     81%     1014.9 1015      
Jun 17 23:53 S 8 16.09 Mostly Clear FEW095 21 17     81%     1015.2 1015.3      
Jun 17 22:53 S 11 16.09 Mostly Clear FEW039 21 17     78%     1014.9 1015      
Jun 17 21:53 S 11 16.09 Clear CLR 22 18     76%   22 1014.9 1014.8      
Jun 17 20:53 S 11 16.09 Mostly Clear FEW038 FEW049 23 18     76%   23 1014.6 1014.4      
Jun 17 19:53 S 9 16.09 Partly Cloudy SCT040 24 18     71%   24 1014.2 1014.2      
Jun 17 18:53 S 8 16.09 Mostly Cloudy FEW047 BKN055 26 17     60%   26 1014.2 1014.1      
Jun 17 17:53 SSW 9 16.09 Mostly Clear FEW036 26 17     60%   26 1014.2 1014.1      
Jun 17 16:53 S 11 16.09 Cloudy BKN042 OVC055 25 17     60%   25 1014.6 1014.6      
Jun 17 15:53 Calm 16.09 Mostly Cloudy BKN042 25 16     58%   25 1014.9 1014.9      
Jun 17 14:53 NE 9 16.09 Mostly Cloudy BKN060 25 16     58%   25 1014.9 1014.9      
Jun 17 13:53 Calm 16.09 Mostly Clear FEW049 25 16     56%   25 1015.2 1015.2      
Jun 17 12:53 N 9 16.09 Partly Cloudy SCT047 24 16     58%   24 1014.9 1014.7      
Jun 17 11:53 NE 5 16.09 Clear CLR 24 16     62%   24 1015.2 1015.2      
Jun 17 10:53 Calm 16.09 Clear CLR 23 16     64%   23 1015.2 1015.2      
Jun 17 09:53 NNE 15 16.09 Clear CLR 22 14     61%   22 1014.6 1014.5      
Jun 17 08:53 N 13 16.09 Clear CLR 22 16     70%   22 1014.2 1014      
Jun 17 07:53 N 9 16.09 Mostly Cloudy BKN120 20 16     78%     1014.6 1014.4      
Jun 17 06:53 NNE 5 16.09 Mostly Clear FEW004 18 17     93%     1013.9 1013.9      
Jun 17 06:41 NNE 8 14.48 Mostly Clear FEW004 18 17     93%     1013.6        
Jun 17 06:30 NNE 8 9.66 Fog/Mist BKN004 18 17     93%     1013.2        
Jun 17 06:02 NNE 8 4.83 Fog/Mist OVC002 18 17     96%     1012.9        
Jun 17 05:53 N 8 2.82 Fog/Mist OVC002 18 18     100%     1012.5 1012.6      
Jun 17 05:49 Calm 3.22 Fog/Mist OVC002 18 18     100%     1012.5        
Jun 17 05:19 NE 13 2.82 Fog/Mist OVC002 18 17     96%     1012.2        
Jun 17 05:09 NE 9 3.22 Fog/Mist OVC003 18 17     96%     1012.2        
Jun 17 05:00 NNE 9 1.61 Fog/Mist BKN003 18 17     93%     1012.2        
Jun 17 04:53 Calm 0.8 Fog BKN004 17 17     97%     1012.2 1012      
Jun 17 04:51 Calm 0.8 Fog BKN004 17 16     94%     1011.9        
Jun 17 04:09 Calm 0.4 Fog VV005 17 17     100%     1011.5        
Jun 17 03:53 Calm 0.4 Fog VV004 18 17     96%     1011.5 1011.3      
Jun 17 03:20 Calm 0.4 Fog VV004 18 17     96%     1011.2        
Jun 17 03:16 Calm 2.01 Fog/Mist FEW005 18 17     96%     1011.2        
Jun 17 03:06 Calm 9.66 Fog/Mist SCT005 18 17     93%     1011.2        
Jun 17 02:53 Calm 9.66 Fog/Mist BKN006 18 18     97%     1011.2 1011.1      
Jun 17 02:13 N 8 16.09 Clear   19 18     96%     1010.8        
Jun 17 01:53 NNE 5 9.66 Clear   19 18     96%     1010.5 1010.4      
Jun 17 01:40 N 5 4.83 Fog/Mist OVC003 19 18     96%     1010.5        
Jun 17 01:12 N 5 3.22 Fog/Mist OVC003 19 19     97%     1010.8        
Jun 17 01:06 Calm 2.01 Fog/Mist OVC005 19 19     97%     1010.8        
Jun 17 00:53 Calm 0.8 Fog OVC005 18 18     97%     1010.8 1010.6      
Jun 17 00:50 Calm 1.21 Fog/Mist BKN005 OVC085 18 18     100%     1010.8        
Jun 17 00:38 Calm 2.41 Fog/Mist BKN005 OVC085 18 18     100%     1010.8        
Jun 16 23:53 Calm 0.4 Fog VV005 18 18     97%     1010.2 1010.1      
Jun 16 23:46 Calm 0.4 Fog VV006 19 18     96%     1010.2        
Jun 16 23:36 Calm 1.21 Fog/Mist FEW008 SCT019 19 18     96%     1010.2        
Jun 16 23:26 Calm 1.61 Fog/Mist SCT010 SCT019 19 18     96%     1009.8        
Jun 16 23:19 Calm 2.82 Fog/Mist BKN010 BKN019 19 18     96%     1009.8        
Jun 16 23:04 Calm 9.66 Fog/Mist BKN010 19 19     97%     1009.8        
Jun 16 22:53 Calm 9.66 Fog/Mist FEW010 19 19     97%     1009.8 1009.8      
Jun 16 21:53 Calm 6.44 Fog/Mist OVC055 20 19     96%     1009.8 1009.7      
Jun 16 20:53 Calm 9.66 Fog/Mist FEW027 OVC050 20 19     96%     1009.5 1009.3      
Jun 16 19:53 Calm 14.48 Cloudy FEW035 OVC050 21 19     93%     1009.2 1009.2 0   0
Jun 16 19:33 SSE 9 4.83 Light Rain and Fog/Mist FEW012 BKN031 OVC048 21 19     93%     1009.2   0    
Jun 16 19:28 S 8 4.02 Light Rain and Fog/Mist SCT012 BKN023 OVC034 21 19     93%     1009.5   0    
Jun 16 18:53 Calm 9.66 Light Rain and Fog/Mist BKN012 OVC022 21 19     90%     1009.2 1009 0    
Jun 16 18:44 SSE 5 14.48 Cloudy BKN012 BKN035 OVC047 21 19     93%     1009.2   0    
Jun 16 17:53 SSE 5 8.05 Light Rain and Fog/Mist FEW040 BKN049 OVC070 21 19     93%     1008.8 1008.8 0    
Jun 16 16:53 S 11 9.66 Fog/Mist SCT050 BKN060 OVC075 21 19     90%     1009.2 1009.2 0 0  
Jun 16 15:53 SSE 11 16.09 Cloudy OVC060 21 19     87%     1009.8 1009.6 0    
Jun 16 14:53 SSW 8 6.44 Light Rain FEW027 BKN032 OVC080 23 18     76%   23 1010.2 1010.2 0    
Jun 16 13:53 SSE 8 16.09 Cloudy FEW045 FEW080 OVC110 23 18     73%   23 1010.2 1009.9 0   0
Jun 16 12:53 SSE 11 16.09 Mostly Clear FEW041 23 17     71%   23 1010.8 1010.8      
Jun 16 11:53 SSW 9 16.09 Partly Cloudy FEW042 FEW100 SCT120 22 18     79%   22 1011.9 1011.9 0    
Jun 16 10:53 S 13 12.87 Light Rain SCT023 SCT055 BKN075 21 18     84%     1011.9 1011.6 0 0  
Jun 16 09:53 S 11 16.09 Cloudy OVC100 19 17     87%     1011.9 1011.9 0    
Jun 16 08:53 SSW 9 16.09 Cloudy OVC100 20 17     81%     1012.5 1012.3      
Jun 16 07:53 S 8 16.09 Partly Cloudy SCT085 SCT100 19 17     87%     1012.5 1012.3     0
Jun 16 06:53 S 15 16.09 Cloudy OVC070 18 17     93%     1012.5 1012.4      
Jun 16 05:53 S 9 16.09 Cloudy OVC070 18 17     93%     1012.9 1012.8 0    
Jun 16 03:53 SSE 9 16.09 Cloudy OVC080 18 16     90%     1013.2 1013.1 0    
May 15 04:53 S 8 6.44 Clear   15 14     96%     1011.2 1011      
May 14 13:53 SSE 13 16.09 Clear CLR 19 13     66%     1014.6 1014.4      
May 14 04:31 S 5 16.09 Cloudy BKN012 OVC028 11 9     89%     1016.3        
May 12 08:53 N 5 16.09 Cloudy OVC055 12 3     54%     1022 1022      
May 12 01:53 Calm 16.09 Mostly Clear FEW120 13 2     47%     1020.7 1020.6      
May 12 00:53 NNE 8 16.09 Clear CLR 13 3     51%     1021 1020.8      
May 11 21:53 N 8 16.09 Clear CLR 17 -2     28%     1019.3 1019.3      
May 11 15:53 N 13 16.09 Clear CLR 21 2     30%     1015.6 1015.5      
May 11 11:53 NW 21 16.09 Mostly Clear FEW040 18 3     38%     1015.6 1015.4      
Jun 11 10:53 8 16.09 Clear CLR 29 17     49%   29 1016.3 1016.3      
Jun 10 18:53   16.09 Clear   26 14     47%   26 1013.6 1013.4      
Jun 10 12:51 SW 13 16.09 Mostly Cloudy BKN075 28 13     40%   28 1014.2        
Jun 10 08:53 E 5 16.09 Clear CLR 22 13     59%   21 1014.9 1014.8      
Jun 09 22:53 S 5 16.09 Clear CLR 16 13     81%     1010.5 1010.3      
Jun 08 01:53 Calm 16.09 Clear CLR 12 10     89%     1016.6 1016.5      
Jun 07 09:53 NNE 17 16.09 Cloudy OVC060 15 9     69%     1015.6 1015.4      
Jun 07 08:53 N 13 16.09 Cloudy SCT055 BKN070 OVC080 14 10     77%     1015.2 1015.2      
Jun 06 14:53 N 15 9.66 Light Rain and Fog/Mist BKN014 OVC019 11 9     92%     1009.8 1009.9 0    
Notice The following observation data may not be complete
Jun 06 08:11   4.02 Light Rain and Fog/Mist BKN007 OVC014          %         0    
Jun 06 07:49 N 17 4.02 Light Rain and Fog/Mist OVC012 11 9     87%     1008.8   0